Temp
3 3 3 3 3 4 5 9 9 7 6 11 12 13 12 8 12 12 12 11 12 12 12 12 12 12 13 15 14 12 9 8 11 12 15 15 18 20 20 19 19 21 21 23
3 3 3 3 3 4 8 10 11 6 7 9 12 11 11 11 11 12 12 12 12 12 12 11 13 13 15 14 13 12 11 10 10 15 13 13 14 19 20 20 21 20 20 21
3 3 3 3 3 4 5 9 7 9 8 11 10 9 10 11 11 11 11 12 12 12 12 13 12 13 14 14 13 11 11 10 9 9 10 12 10 13 19 20 19 20 21 23
3 3 3 3 3 4 4 8 8 11 7 8 10 10 11 10 10 11 12 11 12 11 10 11 12 13 13 14 13 13 12 10 11 12 14 14 14 13 16 17 17 19 21 22
3 3 3 3 3 3 6 5 9 9 10 10 10 8 10 10 11 10 10 11 12 12 10 11 11 12 12 11 13 12 12 11 12 13 14 15 14 13 14 16 18 19 20 20
3 3 3 3 3 4 7 7 8 10 9 9 9 10 10 10 10 10 11 11 10 10 11 12 12 11 12 12 12 11 10 11 12 12 14 12 12 14 15 15 15 18 18 21
3 3 3 3 3 4 7 7 9 8 9 10 10 9 9 10 10 9 10 10 10 11 12 11 12 13 14 15 14 14 11 11 12 12 13 11 13 17 15 16 17 16 16 14
2 3 3 3 3 4 5 6 7 8 8 10 10 9 9 10 10 9 9 10 11 11 10 10 11 13 14 14 14 14 13 11 11 12 13 14 14 15 15 15 16 16 17 17
2 3 3 3 3 3 4 5 6 8 7 9 10 9 9 9 10 10 10 11 11 10 10 10 9 10 11 12 13 14 14 12 12 12 12 12 13 15 16 16 14 13 12 14
2 3 3 2 3 3 3 4 4 6 5 9 8 9 9 10 10 10 10 10 9 10 9 9 10 10 11 10 10 11 11 12 12 13 12 14 14 14 15 13 10 11 8 12
3 3 3 3 3 3 3 4 4 5 6 8 8 8 8 9 9 9 10 9 9 9 8 9 10 10 11 11 11 10 10 9 10 12 12 12 12 12 9 9 11 8 9 10
3 3 3 3 3 3 3 3 4 4 4 6 5 7 7 8 9 8 8 9 7 9 9 9 9 8 10 10 9 9 8 8 8 9 10 8 7 6 8 8 8 7 9 12
2 3 3 2 2 2 3 3 4 3 4 5 7 7 7 6 6 7 7 9 9 8 7 7 8 7 10 8 9 8 9 9 8 9 10 6 4 4 5 5 5 5 8 11
2 3 2 2 2 2 3 2 3 4 5 4 7 8 8 7 7 6 7 8 8 8 7 7 7 8 10 9 10 8 7 6 7 9 9 7 6 3 3 4 3 4 4 9
2 2 2 2 2 2 3 3 3 4 6 4 7 8 8 8 7 7 7 7 7 7 6 6 6 10 10 10 9 7 6 5 6 6 4 4 4 3 2 2 2 2 3 5
1 2 2 2 2 2 2 2 2 3 4 5 5 8 9 8 8 7 8 8 7 5 5 5 6 9 9 8 8 5 4 3 3 3 3 3 2 3 2 2 2 2 1 2
1 2 2 2 2 2 3 4 4 4 3 3 4 7 8 8 8 7 7 6 5 5 5 6 7 9 8 8 8 7 5 4 3 3 3 3 2 1 1 2 2 2 2 2
2 2 2 2 2 2 3 2 2 3 3 5 4 6 7 7 5 4 5 4 4 4 6 8 8 9 9 9 8 7 6 4 4 5 5 3 3 4 3 2 3 4 4 3
2 1 1 1 1 1 4 2 2 1 2 4 4 6 6 7 6 4 4 5 4 7 5 7 8 8 8 6 6 5 4 4 3 4 5 4 4 4 4 3 1 1 2 2
1 1 0 1 2 3 2 1 3 2 3 4 4 8 7 8 6 6 5 5 6 6 7 10 7 8 5 4 3 3 3 3 3 3 3 1 1 1 2 2 1 -0 -0 -0
1 1 3 3 2 3 4 2 2 3 3 5 6 8 8 9 7 6 7 6 6 7 9 8 8 7 2 3 2 2 2 2 2 1 0 -1 -1 -1 -0 -0 -1 -2 -3 -4
3 3 2 2 4 2 3 3 5 5 7 8 6 6 8 8 9 7 7 6 7 7 10 8 8 2 2 2 1 1 1 0 0 -1 -1 -2 -4 -5 -4 -4 -5 -6 -6 -6
3 4 2 2 3 3 3 4 6 6 8 7 6 5 6 7 7 6 5 5 7 9 7 7 3 2 1 1 1 -0 -1 -2 -2 -3 -4 -5 -6 -7 -8 -7 -7 -7 -7 -7
5 3 3 4 4 5 7 8 8 7 8 7 5 5 6 7 5 6 6 6 5 7 7 5 3 0 -0 -0 -1 -2 -4 -5 -5 -7 -7 -8 -7 -8 -9 -9 -8 -8 -8 -8
3 2 4 4 4 4 3 4 5 4 6 6 6 7 6 6 6 5 7 6 7 5 4 1 -0 -1 -1 -2 -2 -3 -5 -6 -6 -7 -8 -9 -9 -8 -9 -10 -10 -9 -9 -9
1 1 3 3 4 3 3 3 2 4 4 6 7 6 5 6 7 7 6 7 7 3 2 1 -0 -1 -2 -3 -4 -5 -5 -6 -6 -7 -7 -8 -9 -9 -9 -10 -10 -10 -10 -10
1 1 0 1 2 2 2 2 1 1 3 5 6 5 6 6 7 6 5 4 2 0 -1 -1 -2 -2 -3 -4 -5 -6 -6 -6 -7 -8 -8 -8 -9 -9 -8 -8 -9 -9 -10 -10
Height
798 799 803 806 807 808 807 801 798 807 807 792 784 777 784 801 788 792 790 790 785 781 780 774 768 767 759 753 754 752 762 754 725 698 678 675 657 649 648 659 664 653 650 640
794 796 803 805 807 806 804 795 795 807 806 794 781 787 789 789 788 786 785 784 782 781 776 774 765 760 754 752 754 755 756 743 731 682 687 693 684 648 645 646 644 651 659 647
793 795 801 803 805 805 807 797 799 800 804 793 788 792 788 787 791 790 788 785 784 777 775 770 765 758 749 754 752 757 753 748 749 737 720 709 712 680 653 646 653 646 641 633
791 794 799 802 803 805 809 799 792 787 800 798 787 789 787 788 789 789 786 784 779 778 781 773 763 755 751 751 749 748 748 744 731 716 701 692 680 679 665 663 666 651 639 631
788 793 796 800 802 806 805 802 791 795 784 786 788 796 786 785 782 791 786 783 779 775 781 775 765 760 760 753 746 746 743 736 725 707 692 685 682 681 678 664 659 648 643 643
786 790 794 797 801 804 798 798 797 790 786 788 787 781 785 786 787 790 788 786 783 784 779 774 771 768 760 753 748 746 746 735 721 706 691 696 688 680 671 670 668 656 656 641
783 787 791 795 797 800 799 797 795 793 784 781 781 785 787 788 789 790 787 788 787 782 780 777 764 749 738 730 730 733 739 737 720 710 695 698 687 672 678 670 663 666 669 669
778 784 788 791 795 798 800 799 797 792 789 779 781 786 788 788 789 790 788 785 784 785 783 773 755 736 726 724 722 723 726 731 722 710 696 688 690 682 679 678 673 672 664 660
774 780 785 788 792 796 800 800 800 796 793 780 780 783 786 784 778 778 779 782 785 785 777 769 764 747 739 729 723 722 722 724 723 710 706 699 693 689 679 673 679 690 686 672
771 776 781 786 790 793 798 799 801 799 798 787 789 785 781 782 782 779 777 779 782 780 776 771 757 749 748 743 738 733 727 720 715 703 702 693 697 694 679 687 707 698 704 680
767 773 778 782 786 791 796 798 799 800 797 787 791 789 789 787 787 781 779 782 780 776 774 764 756 751 743 743 742 744 742 738 726 710 703 705 713 706 720 725 711 711 702 695
763 769 774 779 784 789 794 796 798 799 801 793 793 791 790 790 788 789 786 782 786 782 775 769 763 764 755 752 748 750 749 756 751 745 732 738 742 742 734 732 726 719 704 696
759 765 771 776 782 786 791 794 796 800 800 795 790 786 786 789 791 792 790 784 785 785 791 785 777 777 761 762 755 758 752 750 752 747 734 750 752 751 747 741 736 729 716 709
755 762 768 774 779 784 789 793 794 797 797 793 778 779 782 784 785 788 790 787 788 789 790 786 780 775 762 761 755 759 765 765 762 747 743 748 749 758 753 748 744 737 733 724
753 760 765 772 777 783 788 791 792 793 794 788 780 778 777 779 781 784 786 788 788 789 790 788 781 767 763 756 756 760 768 773 769 763 769 768 761 765 760 755 752 748 744 739
751 758 764 770 775 782 789 790 791 791 793 792 783 774 772 774 775 780 781 783 787 791 789 788 782 771 769 765 754 768 772 775 778 776 775 771 770 765 765 761 758 756 754 751
750 757 764 770 774 780 785 784 784 787 792 793 785 770 769 771 774 778 781 785 788 789 788 782 773 765 768 762 754 760 771 773 775 775 772 769 772 770 769 765 760 758 757 755
750 757 764 771 777 783 785 785 785 789 791 789 783 768 766 772 776 781 784 785 787 786 777 769 766 758 757 750 751 762 768 773 773 771 770 773 771 768 768 766 763 759 758 759
751 759 767 775 780 781 779 784 786 789 794 783 779 766 759 769 771 777 781 782 779 770 770 762 759 752 750 757 762 767 773 774 777 773 772 772 770 769 767 767 768 766 764 763
753 762 768 771 773 777 782 788 788 789 788 783 774 759 758 761 766 769 771 772 764 759 753 747 754 745 765 771 774 776 777 777 778 774 773 778 777 776 773 772 773 773 772 769
754 760 761 765 771 777 779 781 782 779 777 769 761 757 752 754 759 763 761 758 755 747 738 744 738 741 771 774 776 779 780 781 782 782 783 785 785 783 780 778 778 778 777 777
749 752 762 769 771 776 773 768 764 762 750 746 753 755 753 753 754 756 755 753 749 740 733 740 731 771 775 777 781 782 784 785 785 787 787 787 788 788 786 786 786 785 783 779
750 753 761 762 765 763 757 748 745 742 738 742 749 757 754 756 755 757 757 756 741 733 740 738 760 775 780 782 783 787 789 790 791 791 792 791 791 791 790 789 788 785 783 783
744 750 751 745 743 740 727 724 726 736 737 741 750 754 751 751 755 751 746 744 745 733 728 745 767 779 783 786 788 791 795 797 797 798 797 797 796 795 794 793 791 789 787 786
745 747 733 735 737 739 741 741 741 747 745 745 746 745 749 748 750 747 740 738 732 743 749 771 779 784 786 790 792 794 797 799 798 799 800 800 800 798 798 797 795 793 792 791
751 749 739 739 738 743 744 745 750 750 749 746 743 744 746 742 737 737 737 734 732 756 769 777 783 788 791 793 796 798 799 799 800 800 800 801 802 801 800 799 798 797 796 795
750 748 752 748 745 744 750 752 755 757 752 744 742 743 737 738 734 739 746 750 763 774 781 785 789 792 796 797 798 799 800 801 801 802 802 802 801 801 799 798 799 798 798 797
Wind_Speed
17 13 11 11 8 6 6 3 3 4 4 4 2 3 3 1 4 4 4 5 10 9 10 15 18 15 11 19 18 22 5 8 14 31 14 16 21 21 23 11 21 18 16 14
18 15 13 12 11 11 3 3 3 3 4 3 5 4 5 4 6 4 3 5 5 9 12 14 12 17 17 12 21 14 10 7 13 20 8 18 12 16 19 19 17 21 16 15
17 16 15 14 12 10 6 2 3 3 3 3 6 4 5 6 5 7 8 9 9 9 11 14 12 21 13 18 18 10 11 11 17 15 19 14 16 23 15 16 15 18 18 18
18 19 17 15 13 11 7 2 4 4 4 6 8 7 5 8 5 7 6 9 11 8 11 17 17 20 22 20 3 9 14 17 17 21 25 19 18 13 13 12 15 17 18 19
21 20 20 18 15 13 9 4 3 4 2 6 9 6 6 9 7 6 10 10 12 9 14 17 21 22 20 24 14 17 15 12 18 22 13 17 19 8 13 15 18 19 15 21
23 22 23 20 20 18 7 5 2 4 6 8 8 8 8 6 5 8 10 10 10 13 16 17 21 22 25 24 22 19 9 10 15 15 16 19 6 12 5 7 10 13 16 12
25 24 23 23 23 22 7 7 4 3 5 8 9 4 5 9 10 11 9 10 13 15 17 21 21 23 23 20 14 11 10 13 11 12 14 3 8 12 8 10 4 7 7 19
31 26 26 24 24 24 11 5 6 3 6 6 8 6 8 8 9 12 13 12 11 9 15 14 13 13 9 11 12 7 7 8 6 6 11 2 4 14 17 14 11 14 13 5
31 31 28 25 25 25 14 8 9 4 3 5 7 8 10 9 8 8 10 5 7 10 8 8 9 10 13 4 6 2 8 8 6 10 7 4 12 20 18 18 2 22 19 8
32 32 28 27 24 24 19 8 11 5 3 6 3 6 6 6 6 6 5 2 6 7 6 9 10 7 4 4 7 9 9 7 7 7 4 4 19 20 22 3 10 16 12 11
33 32 28 27 24 24 23 12 14 11 4 4 4 7 7 6 5 6 3 5 5 6 6 5 4 4 4 5 8 5 5 7 3 6 4 3 24 12 10 12 19 14 2 10
34 31 29 28 23 23 26 7 11 13 6 3 7 8 12 14 14 6 2 6 0 3 4 3 4 6 5 11 5 7 2 4 5 6 11 14 15 14 16 14 14 13 13 7
36 31 30 26 23 24 27 10 11 6 2 7 12 12 17 18 18 13 8 5 3 1 1 4 3 4 5 6 5 8 10 8 4 14 6 12 14 15 15 13 13 13 15 12
35 32 30 24 25 26 27 12 12 9 3 3 3 4 10 9 12 16 19 15 3 3 3 4 4 4 7 5 10 9 5 8 11 11 10 12 15 13 14 13 13 12 14 14
33 32 28 26 26 25 23 14 12 14 7 2 4 8 14 14 13 14 16 16 11 7 3 3 5 7 7 7 7 6 3 1 4 5 8 7 8 11 14 12 11 11 11 11
32 31 27 28 27 24 13 2 12 15 11 2 3 2 5 6 9 16 13 13 6 3 3 3 4 12 6 4 4 5 5 5 2 3 9 3 10 7 13 8 9 9 8 10
32 30 28 27 26 27 9 1 3 19 11 2 3 3 4 6 9 5 4 7 3 3 3 5 9 10 4 3 7 9 7 3 3 4 7 2 8 6 10 11 6 4 7 10
32 29 27 24 24 17 9 2 4 15 5 3 3 3 6 11 3 3 4 3 3 4 4 4 6 6 4 4 7 7 5 4 3 5 4 3 6 6 7 11 12 7 8 9
29 28 24 19 12 5 8 9 15 11 2 2 4 3 4 6 4 2 4 4 4 4 6 7 5 6 5 4 5 5 5 4 6 7 3 8 8 9 10 9 10 10 9 9
32 30 6 3 11 14 19 6 5 4 3 3 3 7 3 6 5 6 3 4 4 4 7 5 5 8 8 6 5 4 4 5 7 6 5 8 7 8 10 9 9 8 9 11
17 5 3 17 24 10 5 3 4 5 4 5 5 10 7 5 4 4 4 2 3 3 5 5 4 3 4 4 5 4 5 6 6 6 5 6 7 7 8 8 10 12 12 11
13 12 14 13 5 3 5 5 5 6 5 8 5 4 6 4 3 3 3 3 3 5 7 3 2 4 5 5 5 5 6 6 6 8 7 8 9 10 9 9 9 9 9 11
14 4 4 3 5 7 6 10 4 5 5 5 6 4 3 4 4 3 2 5 5 4 4 1 4 7 5 4 4 5 7 7 7 8 9 9 9 11 12 10 11 11 10 11
4 5 6 6 6 5 4 6 7 3 4 7 6 4 4 4 4 2 4 4 3 3 4 3 4 7 6 5 4 4 5 6 6 7 8 8 7 8 9 10 11 10 11 11
2 2 5 5 3 5 4 4 4 3 2 6 4 3 3 4 3 3 4 4 2 2 3 2 6 6 5 4 4 4 3 3 4 5 6 6 6 6 7 8 8 9 8 9
2 3 2 2 4 4 3 4 4 1 1 2 1 2 3 5 3 3 1 4 3 3 4 5 6 6 5 4 3 3 3 4 4 5 6 6 5 6 6 6 7 7 7 8
3 1 2 4 3 5 4 3 3 2 2 3 2 4 1 1 2 2 3 3 4 6 5 6 7 6 5 4 4 3 2 3 4 4 5 6 5 4 5 6 7 6 6 5
Wind_Direction
200 197 204 203 198 193 190 219 229 159 322 238 220 220 156 36 189 192 255 280 275 284 317 311 310 300 286 335 337 329 327 298 298 297 251 296 308 214 226 216 230 231 249 251
193 198 204 203 203 188 189 231 125 189 262 206 210 115 181 224 211 219 261 263 264 303 298 308 293 304 309 330 329 328 324 313 315 330 40 354 334 285 227 229 222 229 228 248
199 201 200 201 206 194 243 194 172 144 223 262 274 155 212 203 206 269 259 276 280 276 321 300 304 296 316 335 312 356 286 294 299 295 306 309 296 271 254 256 226 230 235 236
199 197 198 202 201 192 236 269 238 158 186 224 209 187 188 207 222 216 231 264 240 284 304 303 303 314 318 320 26 316 319 296 295 300 304 299 307 273 248 262 235 259 246 230
200 202 198 199 196 191 245 157 221 187 217 165 189 169 213 231 234 218 257 243 280 318 296 294 305 317 311 309 306 317 313 298 302 302 302 336 311 175 249 260 252 259 255 275
201 201 202 197 197 188 205 230 242 258 145 192 207 210 222 228 232 253 262 281 298 290 297 311 304 294 285 278 282 290 299 297 310 300 326 318 249 350 299 228 266 257 261 284
204 201 201 202 200 196 233 213 217 212 217 219 205 206 229 220 227 257 282 291 283 291 316 305 289 276 266 264 259 250 259 296 292 291 307 287 23 25 14 351 256 216 263 270
200 206 206 206 206 200 229 201 237 226 251 217 209 216 223 229 244 247 261 274 284 317 297 291 300 296 284 245 220 245 229 286 296 300 320 260 34 1 351 342 327 351 320 337
198 204 209 209 205 200 208 221 224 258 266 238 239 219 225 249 252 251 240 244 283 285 276 283 272 290 317 298 309 202 264 240 265 302 310 317 16 347 332 317 274 352 331 282
195 205 209 207 202 198 197 210 206 236 236 258 210 215 255 209 255 260 261 253 280 226 268 281 274 292 261 291 312 335 321 311 275 299 301 303 6 351 323 336 347 339 335 68
199 201 204 202 198 197 196 209 198 212 237 248 208 264 258 242 250 270 49 264 195 264 265 274 291 287 321 306 327 339 315 327 318 330 295 315 9 4 15 338 323 21 80 71
196 200 200 198 199 197 196 210 195 213 249 327 321 290 270 267 285 300 238 294 316 303 292 347 329 325 321 323 309 314 266 8 314 323 316 16 21 353 360 0 0 2 314 98
194 197 198 198 200 195 193 197 173 165 252 282 255 247 248 236 239 242 262 249 263 264 302 318 313 289 294 300 321 342 336 9 312 332 7 17 22 3 354 8 13 13 349 57
191 193 195 196 190 191 193 192 186 193 192 261 277 169 231 231 220 220 227 254 239 294 285 272 274 284 301 300 309 308 313 321 337 310 358 333 27 7 349 3 14 21 17 32
191 190 191 186 184 186 190 207 202 205 240 303 292 296 251 223 213 218 219 227 243 251 264 249 263 272 283 287 284 263 155 84 330 319 358 329 356 6 359 6 20 21 25 30
187 190 185 181 177 176 170 195 222 213 220 269 279 311 215 179 203 209 212 214 224 213 222 257 248 253 273 268 273 134 133 130 149 320 313 292 352 12 2 353 11 27 35 26
181 184 181 177 178 173 177 200 52 186 176 225 265 246 146 189 175 173 196 201 192 232 229 226 253 269 212 252 277 89 117 112 68 358 331 308 14 342 348 344 350 13 35 55
178 177 174 174 175 178 204 74 122 168 183 247 262 258 168 162 157 159 168 193 200 215 247 246 248 263 239 261 96 94 86 139 39 348 15 329 307 322 4 0 359 14 32 30
164 161 157 152 176 178 176 150 156 160 255 248 198 255 169 161 173 137 176 175 214 222 221 236 244 236 233 51 82 73 44 21 340 321 347 349 348 348 356 10 11 9 13 21
150 142 129 156 174 144 128 150 175 190 210 236 261 257 224 172 180 189 207 190 225 215 215 212 225 248 100 78 73 67 30 12 359 353 357 353 352 351 352 4 8 1 6 12
144 145 149 120 144 151 171 174 193 184 218 213 229 229 235 168 203 213 215 216 213 245 190 199 214 148 109 108 81 51 27 25 23 12 26 14 4 349 349 358 4 2 2 3
157 125 106 135 169 186 199 195 193 203 219 162 200 218 232 217 216 229 217 241 249 251 145 212 211 99 118 96 67 54 41 25 31 24 19 15 22 10 3 10 3 352 359 6
125 118 134 192 170 198 215 181 181 193 185 166 164 164 187 202 219 243 202 232 234 144 194 142 56 120 106 92 84 61 42 42 34 30 26 19 20 20 18 8 8 358 18 10
159 160 201 224 171 224 207 187 172 84 125 151 162 146 189 180 183 229 247 194 269 227 210 98 122 109 103 87 74 72 57 45 42 36 27 28 25 25 19 13 10 18 22 26
130 225 187 198 78 52 67 63 101 59 140 153 179 161 204 193 226 215 269 219 188 23 54 87 102 106 107 89 70 76 81 62 46 39 41 34 24 33 36 27 26 30 30 32
348 302 260 99 131 118 114 95 110 94 47 175 230 175 206 226 229 213 336 301 42 84 82 103 110 96 79 78 77 76 66 48 39 31 32 39 30 27 34 41 38 43 39 42
308 76 21 344 27 69 76 27 58 346 210 209 173 225 255 130 203 165 7 31 74 111 100 77 79 91 89 90 94 115 100 61 36 42 30 28 21 10 21 28 32 27 42 34